Content
SEND FEEDBACK

Daily
Averages
Monthly
Summary
Ukraine

CHUBAYEVKA, UKRAINE


Home > Europe > Ukraine
Elevation: 138 feet     Latitude: 46 25N     Longitude: 030 46E

WEATHER
 
SELECT A DAY
Number of Records: 321,596;   Date Range: 7/1/96 - 12/19/14
 
SHARE

PRINT THIS DATA

[ ← Previous Day ]
WEATHER ALMANAC - JANUARY 31, 2013
[ Next Day → ]
[ °C ]   °F
Weather ElementAverageHighLow
Temperature30.6 °F36 °F (11:00 am)15.8 °F (1:30 am)
Dewpoint29.4 °F36 °F (11:00 am)15.8 °F (1:30 am)
Humidity95.3 %100 % (12:07 am)87 % (8:30 am)
Barometer29.79 in29.98 in (12:07 am)29.71 in (1:00 pm)
Wind Speed7.2 mph15.7 mph (12:00 pm)
Weather ElementAverage
Visibility1.1 mi
Wind DirectionSSW (214.4 °)

Weather ElementTotal
Precipitation---
Heating Degree Days39.1 (Base 65)
Averaged from 73 records on January 31, 2013
WEATHER CONDITIONS BREAKOUT
WIND DIRECTION BREAKOUT
WEATHER BY HOUR - JANUARY 31, 2013
[ °C ]   °F
Local TimeTemperatureDewpointHumidityBarometerVisibilityWind DirectionWind SpeedGust SpeedPrecipitationEventsConditions
12:07 AM21.2 °F21.2 °F100 %29.98 inWest (270°)2.2 mphFogLight Freezing Fog
12:30 AM19.4 °F19.4 °F100 %29.98 inCalmFogLight Freezing Fog
1:00 AM17.6 °F17.6 °F100 %29.95 inCalmFogLight Freezing Fog
1:24 AM17.6 °F17.6 °F100 %29.95 inCalmFogLight Freezing Fog
1:30 AM15.8 °F15.8 °F100 %29.95 inCalmFogLight Freezing Fog
2:00 AM22.0 °F22.0 °F100 %29.97 in2.0 miSW (230°)4.5 mphMist
2:00 AM15.8 °F15.8 °F100 %29.95 in0.0 miCalmFogLight Freezing Fog
2:30 AM15.8 °F15.8 °F100 %29.92 in0.0 miSW (220°)4.5 mphFogLight Freezing Fog
3:00 AM17.6 °F17.6 °F100 %29.92 in0.0 miCalmFogLight Freezing Fog
3:30 AM17.6 °F17.6 °F100 %29.92 in0.0 miCalmFogLight Freezing Fog
4:00 AM19.4 °F17.6 °F93 %29.89 in0.0 miCalmFogLight Freezing Fog
4:30 AM21.2 °F21.2 °F100 %29.89 in0.0 miCalmFogLight Freezing Fog
5:00 AM28.0 °F28.0 °F100 %29.90 in0.0 miSouth (190°)2.2 mphFogHeavy Fog
5:00 AM21.2 °F21.2 °F100 %29.86 in0.0 miCalmFogLight Freezing Fog
5:22 AM21.2 °F21.2 °F100 %29.86 in0.1 miSSE (160°)2.2 mphFogLight Freezing Fog
5:30 AM24.8 °F23.0 °F93 %29.86 in0.1 miCalmFogLight Freezing Fog
6:00 AM24.8 °F24.8 °F100 %29.86 in0.1 miSouth (180°)2.2 mphFogLight Freezing Fog
6:14 AM24.8 °F24.8 °F100 %29.86 in0.2 miSouth (170°)2.2 mphFogLight Freezing Fog
6:30 AM26.6 °F26.6 °F100 %29.83 in0.5 miSouth (170°)4.5 mphFogLight Freezing Fog
7:00 AM28.4 °F28.4 °F100 %29.83 in0.6 miSouth (170°)8.9 mphFogLight Freezing Fog
7:18 AM28.4 °F28.4 °F100 %29.83 in0.6 miSouth (180°)8.9 mphMostly Cloudy
7:30 AM30.2 °F28.4 °F93 %29.80 in0.6 miSouth (180°)8.9 mphMostly Cloudy
7:43 AM30.2 °F28.4 °F93 %29.80 in0.6 miSouth (180°)8.9 mphOvercast
8:00 AM33.0 °F32.0 °F95 %29.83 in3.0 miSSW (200°)4.5 mphMist
8:00 AM32.0 °F30.2 °F93 %29.80 in1.4 miSouth (180°)8.9 mphMostly Cloudy
8:30 AM33.8 °F30.2 °F87 %29.80 in1.7 miSSW (200°)11.2 mphOvercast
8:38 AM33.8 °F30.2 °F87 %29.80 in1.7 miSSW (200°)11.2 mphOvercast
9:00 AM33.8 °F32.0 °F93 %29.77 in1.6 miSSW (210°)13.4 mphOvercast
9:28 AM33.8 °F30.2 °F87 %29.77 in1.2 miSSW (210°)13.4 mphOvercast
9:30 AM33.8 °F30.2 °F87 %29.77 in1.2 miSSW (210°)13.4 mphOvercast
10:00 AM33.8 °F32.0 °F93 %29.77 in1.4 miSSW (210°)13.4 mphOvercast
10:30 AM33.8 °F33.8 °F100 %29.77 in1.4 miSW (220°)11.2 mphRainLight Rain Showers
10:57 AM35.6 °F33.8 °F93 %29.77 in1.2 miSSW (210°)8.9 mphRainLight Rain
11:00 AM36.0 °F36.0 °F100 %29.80 in3.0 miSSW (200°)6.7 mphRainLight Rain Showers
11:00 AM35.6 °F33.8 °F93 %29.77 in1.2 miSW (220°)11.2 mphRainLight Rain
11:30 AM35.6 °F33.8 °F93 %29.77 in1.2 miSW (220°)13.4 mphRainLight Rain
12:00 PM35.6 °F33.8 °F93 %29.74 in1.2 miSW (220°)15.7 mphRainLight Rain
12:30 PM35.6 °F33.8 °F93 %29.74 in1.2 miSW (230°)13.4 mphRainLight Rain
1:00 PM35.6 °F33.8 °F93 %29.71 in1.2 miSW (220°)13.4 mphRainLight Rain
1:30 PM35.6 °F33.8 °F93 %29.71 in1.2 miSW (230°)13.4 mphRainLight Rain
2:00 PM36.0 °F35.0 °F97 %29.72 in3.0 miSW (220°)6.7 mphRainLight Rain Showers
2:00 PM35.6 °F33.8 °F93 %29.71 in1.2 miSW (220°)11.2 mphRainLight Rain
2:30 PM35.6 °F33.8 °F93 %29.71 in0.9 miWSW (240°)11.2 mphRainLight Rain
2:33 PM35.6 °F33.8 °F93 %29.71 in0.9 miWSW (240°)11.2 mphRainLight Rain
3:00 PM35.6 °F33.8 °F93 %29.71 in0.9 miWSW (250°)11.2 mphRainLight Rain
3:30 PM35.6 °F33.8 °F93 %29.71 in1.0 miWest (270°)8.9 mphRainLight Rain
3:49 PM35.6 °F33.8 °F93 %29.71 in1.0 miWNW (290°)6.7 mphRain-SnowRain Showers
3:54 PM35.6 °F33.8 °F93 %29.71 in0.9 miWNW (290°)6.7 mphRain-SnowRain Showers
4:00 PM33.8 °F32.0 °F93 %29.71 in0.8 miWNW (290°)6.7 mphRain-SnowSnow Showers
4:24 PM33.8 °F32.0 °F93 %29.71 in1.0 miWNW (300°)8.9 mphRain-SnowSnow Showers
4:30 PM33.8 °F32.0 °F93 %29.71 in1.0 miWNW (300°)8.9 mphRain-SnowSnow Showers
4:54 PM33.8 °F32.0 °F93 %29.71 in0.7 miNW (310°)11.2 mphRain-SnowSnow Showers
5:00 PM34.0 °F33.0 °F95 %29.73 in1.0 miWest (280°)4.5 mphSnowLight Snow Showers
5:00 PM33.8 °F32.0 °F93 %29.71 in0.7 miNW (310°)11.2 mphRain-SnowSnow Showers
5:28 PM33.8 °F32.0 °F93 %29.74 in1.1 miNW (310°)8.9 mphRainRain Showers
5:30 PM33.8 °F32.0 °F93 %29.74 in1.1 miNW (320°)8.9 mphRainRain Showers
5:51 PM33.8 °F32.0 °F93 %29.74 in0.9 miNNW (330°)8.9 mphRainRain Showers
6:00 PM33.8 °F32.0 °F93 %29.74 in1.0 miNNW (330°)6.7 mphRainRain Showers
6:22 PM33.8 °F32.0 °F93 %29.74 in1.1 miNNW (330°)6.7 mphRainRain
6:30 PM33.8 °F32.0 °F93 %29.74 in1.1 miNNW (330°)6.7 mphRainRain
6:43 PM33.8 °F32.0 °F93 %29.74 in1.3 miNNW (330°)8.9 mphRainLight Rain
7:00 PM33.8 °F33.8 °F100 %29.74 in1.3 miNNW (330°)6.7 mphMostly Cloudy
7:30 PM33.8 °F33.8 °F100 %29.74 in1.4 miNNW (330°)6.7 mphOvercast
8:00 PM35.6 °F33.8 °F93 %29.74 in1.6 miNNW (330°)8.9 mphOvercast
8:00 PM36.0 °F35.0 °F96 %29.75 in4.0 miWNW (290°)6.7 mphMist
8:30 PM35.6 °F33.8 °F93 %29.74 in1.8 miNW (310°)6.7 mphOvercast
9:00 PM33.8 °F33.8 °F100 %29.77 inWest (280°)4.5 mphOvercast
9:30 PM33.8 °F33.8 °F100 %29.77 in2.2 miWNW (300°)6.7 mphOvercast
10:00 PM33.8 °F32.0 °F93 %29.77 inNW (310°)8.9 mphOvercast
10:30 PM33.8 °F32.0 °F93 %29.74 in2.2 miNW (310°)6.7 mphOvercast
11:00 PM35.0 °F35.0 °F98 %29.77 in4.0 miWest (280°)4.5 mphMist
11:00 PM33.8 °F32.0 °F93 %29.77 inWNW (300°)11.2 mphOvercast
11:30 PM33.8 °F32.0 °F93 %29.77 inWNW (300°)8.9 mphOvercast
Hourly data recorded from UKOO, located miles away from Chubayevka, Ukraine







STORIES FROM OUR PARTNERS